Terminal Aerodrome Forecast
Issued by NWS Bismarck, ND

Home | Current Version | Previous Version | Graphics & Text | Print | Product List | Glossary On
Versions: 1 2 3 4 5 6 7 8 9 10 11 12 13 14 15 16 17 18 19
000
FTUS43 KBIS 260522
TAFBIS
TAF
KBIS 260522Z 2606/2706 01009KT P6SM OVC030
     FM261800 36012G20KT P6SM BKN040
     FM262000 01011G19KT P6SM SCT040
     FM270100 03009KT P6SM SCT040=

USA.gov is the U.S. government's official web portal to all federal, state and local government web resources and services.